Home   Weather   Bloomington   Past weeks

Flag for USA Past Weather in Bloomington, Illinois, USA — Yesterday and Last 2 Weeks

Now
77 °F

Sunny.


Feels Like: 79 °F
Forecast: 64 / 89 °F
Wind: 7 mph from South

Location: Bloomington / Normal

Current Time: Aug 20, 2017 at 10:46:28 am

Latest Report: Aug 20, 2017 at 9:56 am


Visibility: 10 mi

Pressure: 30.11 "Hg

Humidity: 79%

Dew Point: 70 °F

Location of BloomingtonLocation

Past Weather in Bloomington — Graph

°F

Bloomington Temperature Yesterday

Maximum temperature yesterday: 83 °F (at 3:56 pm)
Minimum temperature yesterday: 62 °F (at 5:56 am)
Average temperature yesterday: 71 °F

High & Low Weather Summary for the Past Weeks

 TemperatureHumidityPressure
High87 °F (Aug 15, 2:56 pm)100% (Aug 7, 8:13 am)30.29 "Hg (Aug 7, 8:13 am)
Low56 °F (Aug 8, 5:56 am)42% (Aug 9, 2:56 pm)29.82 "Hg (Aug 17, 2:23 pm)
Average71 °F76%30.05 "Hg
* Reported Aug 5 8:56 am — Aug 20 8:56 am, Bloomington. Weather by CustomWeather, © 2017

Note: Actual official high and low records may vary slightly from our data, if they occured in-between our weather recording intervals... More about our weather records

Advertising

Bloomington Weather History for the Previous 24 Hours

Scroll right to see more
 ConditionsComfort  
Time TempWeatherWind HumidityBarometerVisibility
8:56 am
Sun, Aug 20
76 °FSunny.8 mph80%30.10 "Hg10 mi
7:56 am72 °FSunny.7 mph87%30.08 "Hg10 mi
6:56 am67 °FSunny.6 mph93%30.06 "Hg10 mi
5:56 am66 °FClear.8 mph93%30.05 "Hg10 mi
4:56 am66 °FClear.7 mph90%30.06 "Hg10 mi
3:56 am69 °FClear.9 mph84%30.03 "Hg10 mi
2:56 am67 °FClear.7 mph85%30.03 "Hg10 mi
1:56 am66 °FClear.6 mph87%30.05 "Hg10 mi
12:56 am65 °FClear.7 mph87%30.05 "Hg10 mi
11:56 pm
Sat, Aug 19
67 °FClear.7 mph85%30.04 "Hg10 mi
10:56 pm66 °FClear.7 mph90%30.03 "Hg10 mi
9:56 pm68 °FClear.7 mph87%30.03 "Hg10 mi
8:56 pm70 °FClear.6 mph84%30.02 "Hg10 mi
7:56 pm74 °FClear.5 mph79%30.01 "Hg10 mi
6:56 pm78 °FSunny.5 mph64%30.01 "Hg10 mi
5:56 pm81 °FSunny.7 mph58%30.00 "Hg10 mi
4:56 pm82 °FSunny.6 mph55%30.00 "Hg10 mi
3:56 pm83 °FSunny.5 mph51%30.01 "Hg10 mi
2:56 pm82 °FSunny.6 mph51%30.01 "Hg10 mi
1:56 pm81 °FSunny.6 mph56%30.01 "Hg10 mi
12:56 pm80 °FSunny.8 mph58%30.02 "Hg10 mi
11:56 am79 °FSunny.8 mph60%30.03 "Hg10 mi
10:56 am77 °FSunny.No wind62%30.02 "Hg10 mi
Weather by CustomWeather, © 2017

See weather overviewHow to use our weather pages